Year,Month,Day,Hour,Minute,Value (Times are PST for temperature in C)
2017,05,31,00,00,11.40
2017,05,31,00,01,11.40
2017,05,31,00,02,11.40
2017,05,31,00,03,11.40
2017,05,31,00,04,11.40
2017,05,31,00,05,11.40
2017,05,31,00,06,11.40
2017,05,31,00,07,11.40
2017,05,31,00,08,11.40
2017,05,31,00,09,11.40
2017,05,31,00,10,11.40
2017,05,31,00,11,11.40
2017,05,31,00,12,11.40
2017,05,31,00,13,11.40
2017,05,31,00,14,11.40
2017,05,31,00,15,11.40
2017,05,31,00,16,11.40
2017,05,31,00,17,11.40
2017,05,31,00,18,11.40
2017,05,31,00,19,11.40
2017,05,31,00,20,11.40
2017,05,31,00,21,11.40
2017,05,31,00,22,11.40
2017,05,31,00,23,11.40
2017,05,31,00,24,11.40
2017,05,31,00,25,11.40
2017,05,31,00,26,11.40
2017,05,31,00,27,11.40
2017,05,31,00,28,11.40
2017,05,31,00,29,11.40
2017,05,31,00,30,11.40
2017,05,31,00,31,11.40
2017,05,31,00,32,11.40
2017,05,31,00,33,11.40
2017,05,31,00,34,11.40
2017,05,31,00,35,11.40
2017,05,31,00,36,11.40
2017,05,31,00,37,11.40
2017,05,31,00,38,11.40
2017,05,31,00,39,11.40
2017,05,31,00,40,11.40
2017,05,31,00,41,11.40
2017,05,31,00,42,11.40
2017,05,31,00,43,11.40
2017,05,31,00,44,11.40
2017,05,31,00,45,11.40
2017,05,31,00,46,11.40
2017,05,31,00,47,11.40
2017,05,31,00,48,11.40
2017,05,31,00,49,11.40
2017,05,31,00,50,11.40
2017,05,31,00,51,11.40
2017,05,31,00,52,11.40
2017,05,31,00,53,11.40
2017,05,31,00,54,11.40
2017,05,31,00,55,11.40
2017,05,31,00,56,11.40
2017,05,31,00,57,11.40
2017,05,31,00,58,11.40
2017,05,31,00,59,11.40
2017,05,31,01,00,11.40
2017,05,31,01,01,11.40
2017,05,31,01,02,11.40
2017,05,31,01,03,11.40
2017,05,31,01,04,11.40
2017,05,31,01,05,11.40
2017,05,31,01,06,11.40
2017,05,31,01,07,11.40
2017,05,31,01,08,11.40
2017,05,31,01,09,11.40
2017,05,31,01,10,11.40
2017,05,31,01,11,11.40
2017,05,31,01,12,11.30
2017,05,31,01,13,11.30
2017,05,31,01,14,11.30
2017,05,31,01,15,11.30
2017,05,31,01,16,11.30
2017,05,31,01,17,11.30
2017,05,31,01,18,11.30
2017,05,31,01,19,11.30
2017,05,31,01,20,11.30
2017,05,31,01,21,11.30
2017,05,31,01,22,11.30
2017,05,31,01,23,11.30
2017,05,31,01,24,11.30
2017,05,31,01,25,11.30
2017,05,31,01,26,11.30
2017,05,31,01,27,11.30
2017,05,31,01,28,11.30
2017,05,31,01,29,11.30
2017,05,31,01,30,11.30
2017,05,31,01,31,11.30
2017,05,31,01,32,11.20
2017,05,31,01,33,11.20
2017,05,31,01,34,11.20
2017,05,31,01,35,11.20
2017,05,31,01,36,11.20
2017,05,31,01,37,11.20
2017,05,31,01,38,11.20
2017,05,31,01,39,11.20
2017,05,31,01,40,11.20
2017,05,31,01,41,11.20
2017,05,31,01,42,11.20
2017,05,31,01,43,11.10
2017,05,31,01,44,11.10
2017,05,31,01,45,11.10
2017,05,31,01,46,11.00
2017,05,31,01,47,11.00
2017,05,31,01,48,11.00
2017,05,31,01,49,10.90
2017,05,31,01,50,10.90
2017,05,31,01,51,10.90
2017,05,31,01,52,10.80
2017,05,31,01,53,10.80
2017,05,31,01,54,10.80
2017,05,31,01,55,10.80
2017,05,31,01,56,10.70
2017,05,31,01,57,10.70
2017,05,31,01,58,10.70
2017,05,31,01,59,10.70
2017,05,31,02,00,10.60
2017,05,31,02,01,10.60
2017,05,31,02,02,10.60
2017,05,31,02,03,10.60
2017,05,31,02,04,10.50
2017,05,31,02,05,10.50
2017,05,31,02,06,10.50
2017,05,31,02,07,10.50
2017,05,31,02,08,10.40
2017,05,31,02,09,10.40
2017,05,31,02,10,10.40
2017,05,31,02,11,10.30
2017,05,31,02,12,10.30
2017,05,31,02,13,10.30
2017,05,31,02,14,10.30
2017,05,31,02,15,10.20
2017,05,31,02,16,10.20
2017,05,31,02,17,10.20
2017,05,31,02,18,10.20
2017,05,31,02,19,10.20
2017,05,31,02,20,10.20
2017,05,31,02,21,10.10
2017,05,31,02,22,10.10
2017,05,31,02,23,10.00
2017,05,31,02,24,10.00
2017,05,31,02,25,9.90
2017,05,31,02,26,9.90
2017,05,31,02,27,9.90
2017,05,31,02,28,9.80
2017,05,31,02,29,9.80
2017,05,31,02,30,9.80
2017,05,31,02,31,9.70
2017,05,31,02,32,9.70
2017,05,31,02,33,9.70
2017,05,31,02,34,9.70
2017,05,31,02,35,9.70
2017,05,31,02,36,9.60
2017,05,31,02,37,9.60
2017,05,31,02,38,9.60
2017,05,31,02,39,9.60
2017,05,31,02,40,9.60
2017,05,31,02,41,9.60
2017,05,31,02,42,9.60
2017,05,31,02,43,9.60
2017,05,31,02,44,9.60
2017,05,31,02,45,9.60
2017,05,31,02,46,9.60
2017,05,31,02,47,9.60
2017,05,31,02,48,9.60
2017,05,31,02,49,9.60
2017,05,31,02,50,9.60
2017,05,31,02,51,9.60
2017,05,31,02,52,9.60
2017,05,31,02,53,9.60
2017,05,31,02,54,9.60
2017,05,31,02,55,9.60
2017,05,31,02,56,9.50
2017,05,31,02,57,9.50
2017,05,31,02,58,9.50
2017,05,31,02,59,9.50
2017,05,31,03,00,9.50
2017,05,31,03,01,9.50
2017,05,31,03,02,9.50
2017,05,31,03,03,9.50
2017,05,31,03,04,9.50
2017,05,31,03,05,9.60
2017,05,31,03,06,9.50
2017,05,31,03,07,9.60
2017,05,31,03,08,9.60
2017,05,31,03,09,9.60
2017,05,31,03,10,9.60
2017,05,31,03,11,9.60
2017,05,31,03,12,9.50
2017,05,31,03,13,9.50
2017,05,31,03,14,9.50
2017,05,31,03,15,9.50
2017,05,31,03,16,9.50
2017,05,31,03,17,9.50
2017,05,31,03,18,9.50
2017,05,31,03,19,9.40
2017,05,31,03,20,9.50
2017,05,31,03,21,9.50
2017,05,31,03,22,9.50
2017,05,31,03,23,9.40
2017,05,31,03,24,9.40
2017,05,31,03,25,9.40
2017,05,31,03,26,9.40
2017,05,31,03,27,9.40
2017,05,31,03,28,9.40
2017,05,31,03,29,9.40
2017,05,31,03,30,9.40
2017,05,31,03,31,9.40
2017,05,31,03,32,9.40
2017,05,31,03,33,9.40
2017,05,31,03,34,9.40
2017,05,31,03,35,9.40
2017,05,31,03,36,9.40
2017,05,31,03,37,9.40
2017,05,31,03,38,9.40
2017,05,31,03,39,9.40
2017,05,31,03,40,9.40
2017,05,31,03,41,9.40
2017,05,31,03,42,9.40
2017,05,31,03,43,9.40
2017,05,31,03,44,9.40
2017,05,31,03,45,9.40
2017,05,31,03,46,9.40
2017,05,31,03,47,9.40
2017,05,31,03,48,9.40
2017,05,31,03,49,9.40
2017,05,31,03,50,9.40
2017,05,31,03,51,9.40
2017,05,31,03,52,9.40
2017,05,31,03,53,9.40
2017,05,31,03,54,9.40
2017,05,31,03,55,9.40
2017,05,31,03,56,9.40
2017,05,31,03,57,9.40
2017,05,31,03,58,9.40
2017,05,31,03,59,9.40
2017,05,31,04,00,9.40
2017,05,31,04,01,9.40
2017,05,31,04,02,9.40
2017,05,31,04,03,9.40
2017,05,31,04,04,9.40
2017,05,31,04,05,9.40
2017,05,31,04,06,9.50
2017,05,31,04,07,9.50
2017,05,31,04,08,9.50
2017,05,31,04,09,9.50
2017,05,31,04,10,9.50
2017,05,31,04,11,9.50
2017,05,31,04,12,9.50
2017,05,31,04,13,9.50
2017,05,31,04,14,9.50
2017,05,31,04,15,9.50
2017,05,31,04,16,9.40
2017,05,31,04,17,9.40
2017,05,31,04,18,9.40
2017,05,31,04,19,9.40
2017,05,31,04,20,9.40
2017,05,31,04,21,9.40
2017,05,31,04,22,9.40
2017,05,31,04,23,9.40
2017,05,31,04,24,9.40
2017,05,31,04,25,9.40
2017,05,31,04,26,9.40
2017,05,31,04,27,9.40
2017,05,31,04,28,9.40
2017,05,31,04,29,9.40
2017,05,31,04,30,9.40
2017,05,31,04,31,9.40
2017,05,31,04,32,9.40
2017,05,31,04,33,9.40
2017,05,31,04,34,9.40
2017,05,31,04,35,9.30
2017,05,31,04,36,9.30
2017,05,31,04,37,9.30
2017,05,31,04,38,9.30
2017,05,31,04,39,9.30
2017,05,31,04,40,9.30
2017,05,31,04,41,9.30
2017,05,31,04,42,9.20
2017,05,31,04,43,9.20
2017,05,31,04,44,9.20
2017,05,31,04,45,9.20
2017,05,31,04,46,9.20
2017,05,31,04,47,9.20
2017,05,31,04,48,9.20
2017,05,31,04,49,9.20
2017,05,31,04,50,9.20
2017,05,31,04,51,9.20
2017,05,31,04,52,9.20
2017,05,31,04,53,9.20
2017,05,31,04,54,9.20
2017,05,31,04,55,9.20
2017,05,31,04,56,9.10
2017,05,31,04,57,9.10
2017,05,31,04,58,9.10
2017,05,31,04,59,9.10
2017,05,31,05,00,9.10
2017,05,31,05,01,9.10
2017,05,31,05,02,9.10
2017,05,31,05,03,9.00
2017,05,31,05,04,9.00
2017,05,31,05,05,9.00
2017,05,31,05,06,9.00
2017,05,31,05,07,9.00
2017,05,31,05,08,9.00
2017,05,31,05,09,9.00
2017,05,31,05,10,9.00
2017,05,31,05,11,9.00
2017,05,31,05,12,9.00
2017,05,31,05,13,9.00
2017,05,31,05,14,9.00
2017,05,31,05,15,8.90
2017,05,31,05,16,8.90
2017,05,31,05,17,8.90
2017,05,31,05,18,8.90
2017,05,31,05,19,8.90
2017,05,31,05,20,8.90
2017,05,31,05,21,8.90
2017,05,31,05,22,8.90
2017,05,31,05,23,8.90
2017,05,31,05,24,8.90
2017,05,31,05,25,8.80
2017,05,31,05,26,8.80
2017,05,31,05,27,8.80
2017,05,31,05,28,8.80
2017,05,31,05,29,8.80
2017,05,31,05,30,8.80
2017,05,31,05,31,8.80
2017,05,31,05,32,8.80
2017,05,31,05,33,8.80
2017,05,31,05,34,8.80
2017,05,31,05,35,8.80
2017,05,31,05,36,8.80
2017,05,31,05,37,8.70
2017,05,31,05,38,8.70
2017,05,31,05,39,8.70
2017,05,31,05,40,8.70
2017,05,31,05,41,8.70
2017,05,31,05,42,8.70
2017,05,31,05,43,8.70
2017,05,31,05,44,8.60
2017,05,31,05,45,8.60
2017,05,31,05,46,8.60
2017,05,31,05,47,8.60
2017,05,31,05,48,8.60
2017,05,31,05,49,8.60
2017,05,31,05,50,8.60
2017,05,31,05,51,8.70
2017,05,31,05,52,8.70
2017,05,31,05,53,8.70
2017,05,31,05,54,8.70
2017,05,31,05,55,8.70
2017,05,31,05,56,8.70
2017,05,31,05,57,8.70
2017,05,31,05,58,8.70
2017,05,31,05,59,8.70
2017,05,31,06,00,8.70
2017,05,31,06,01,8.70
2017,05,31,06,02,8.70
2017,05,31,06,03,8.80
2017,05,31,06,04,8.80
2017,05,31,06,05,8.80
2017,05,31,06,06,8.80
2017,05,31,06,07,8.80
2017,05,31,06,08,8.80
2017,05,31,06,09,8.80
2017,05,31,06,10,8.80
2017,05,31,06,11,8.80
2017,05,31,06,12,8.80
2017,05,31,06,13,8.80
2017,05,31,06,14,8.80
2017,05,31,06,15,8.80
2017,05,31,06,16,8.90
2017,05,31,06,17,8.90
2017,05,31,06,18,8.90
2017,05,31,06,19,8.90
2017,05,31,06,20,8.90
2017,05,31,06,21,8.90
2017,05,31,06,22,8.90
2017,05,31,06,23,9.00
2017,05,31,06,24,9.00
2017,05,31,06,25,9.00
2017,05,31,06,26,9.10
2017,05,31,06,27,9.10
2017,05,31,06,28,9.10
2017,05,31,06,29,9.10
2017,05,31,06,30,9.10
2017,05,31,06,31,9.10
2017,05,31,06,32,9.20
2017,05,31,06,33,9.20
2017,05,31,06,34,9.20
2017,05,31,06,35,9.20
2017,05,31,06,36,9.20
2017,05,31,06,37,9.30
2017,05,31,06,38,9.30
2017,05,31,06,39,9.30
2017,05,31,06,40,9.30
2017,05,31,06,41,9.30
2017,05,31,06,42,9.30
2017,05,31,06,43,9.30
2017,05,31,06,44,9.40
2017,05,31,06,45,9.40
2017,05,31,06,46,9.40
2017,05,31,06,47,9.40
2017,05,31,06,48,9.40
2017,05,31,06,49,9.40
2017,05,31,06,50,9.40
2017,05,31,06,51,9.40
2017,05,31,06,52,9.50
2017,05,31,06,53,9.50
2017,05,31,06,54,9.50
2017,05,31,06,55,9.60
2017,05,31,06,56,9.60
2017,05,31,06,57,9.60
2017,05,31,06,58,9.60
2017,05,31,06,59,9.70
2017,05,31,07,00,9.70
2017,05,31,07,01,9.70
2017,05,31,07,02,9.70
2017,05,31,07,03,9.70
2017,05,31,07,04,9.70
2017,05,31,07,05,9.80
2017,05,31,07,06,9.80
2017,05,31,07,07,9.80
2017,05,31,07,08,9.80
2017,05,31,07,09,9.80
2017,05,31,07,10,9.80
2017,05,31,07,11,9.80
2017,05,31,07,12,9.80
2017,05,31,07,13,9.90
2017,05,31,07,14,9.90
2017,05,31,07,15,9.90
2017,05,31,07,16,9.90
2017,05,31,07,17,9.90
2017,05,31,07,18,9.90
2017,05,31,07,19,10.00
2017,05,31,07,20,10.00
2017,05,31,07,21,10.00
2017,05,31,07,22,10.10
2017,05,31,07,23,10.10
2017,05,31,07,24,10.10
2017,05,31,07,25,10.10
2017,05,31,07,26,10.20
2017,05,31,07,27,10.20
2017,05,31,07,28,10.20
2017,05,31,07,29,10.20
2017,05,31,07,30,10.20
2017,05,31,07,31,10.20
2017,05,31,07,32,10.20
2017,05,31,07,33,10.20
2017,05,31,07,34,10.20
2017,05,31,07,35,10.20
2017,05,31,07,36,10.20
2017,05,31,07,37,10.20
2017,05,31,07,38,10.20
2017,05,31,07,39,10.20
2017,05,31,07,40,10.20
2017,05,31,07,41,10.20
2017,05,31,07,42,10.30
2017,05,31,07,43,10.30
2017,05,31,07,44,10.30
2017,05,31,07,45,10.30
2017,05,31,07,46,10.30
2017,05,31,07,47,10.30
2017,05,31,07,48,10.30
2017,05,31,07,49,10.40
2017,05,31,07,50,10.40
2017,05,31,07,51,10.40
2017,05,31,07,52,10.40
2017,05,31,07,53,10.50
2017,05,31,07,54,10.50
2017,05,31,07,55,10.50
2017,05,31,07,56,10.50
2017,05,31,07,57,10.60
2017,05,31,07,58,10.60
2017,05,31,07,59,10.60
2017,05,31,08,00,10.70
2017,05,31,08,01,10.70
2017,05,31,08,02,10.70
2017,05,31,08,03,10.70
2017,05,31,08,04,10.80
2017,05,31,08,05,10.80
2017,05,31,08,06,10.90
2017,05,31,08,07,10.90
2017,05,31,08,08,11.00
2017,05,31,08,09,11.00
2017,05,31,08,10,11.10
2017,05,31,08,11,11.10
2017,05,31,08,12,11.20
2017,05,31,08,13,11.20
2017,05,31,08,14,11.30
2017,05,31,08,15,11.30
2017,05,31,08,16,11.40
2017,05,31,08,17,11.50
2017,05,31,08,18,11.60
2017,05,31,08,19,11.80
2017,05,31,08,20,12.00
2017,05,31,08,21,12.10
2017,05,31,08,22,12.20
2017,05,31,08,23,12.30
2017,05,31,08,24,12.30
2017,05,31,08,25,12.30
2017,05,31,08,26,12.20
2017,05,31,08,27,12.20
2017,05,31,08,28,12.10
2017,05,31,08,29,12.10
2017,05,31,08,30,12.10
2017,05,31,08,31,12.10
2017,05,31,08,32,12.10
2017,05,31,08,33,12.00
2017,05,31,08,34,12.10
2017,05,31,08,35,12.10
2017,05,31,08,36,12.10
2017,05,31,08,37,12.10
2017,05,31,08,38,12.10
2017,05,31,08,39,12.10
2017,05,31,08,40,12.10
2017,05,31,08,41,12.10
2017,05,31,08,42,12.10
2017,05,31,08,43,12.20
2017,05,31,08,44,12.20
2017,05,31,08,45,12.20
2017,05,31,08,46,12.20
2017,05,31,08,47,12.20
2017,05,31,08,48,12.30
2017,05,31,08,49,12.30
2017,05,31,08,50,12.40
2017,05,31,08,51,12.60
2017,05,31,08,52,12.70
2017,05,31,08,53,12.90
2017,05,31,08,54,13.00
2017,05,31,08,55,13.20
2017,05,31,08,56,13.30
2017,05,31,08,57,13.40
2017,05,31,08,58,13.40
2017,05,31,08,59,13.40
2017,05,31,09,00,13.30
2017,05,31,09,01,13.20
2017,05,31,09,02,13.20
2017,05,31,09,03,13.20
2017,05,31,09,04,13.10
2017,05,31,09,05,13.10
2017,05,31,09,06,13.00
2017,05,31,09,07,13.00
2017,05,31,09,08,13.00
2017,05,31,09,09,13.00
2017,05,31,09,10,13.00
2017,05,31,09,11,13.00
2017,05,31,09,12,12.90
2017,05,31,09,13,12.90
2017,05,31,09,14,12.90
2017,05,31,09,15,12.90
2017,05,31,09,16,12.90
2017,05,31,09,17,12.90
2017,05,31,09,18,12.90
2017,05,31,09,19,12.90
2017,05,31,09,20,12.90
2017,05,31,09,21,12.90
2017,05,31,09,22,12.90
2017,05,31,09,23,12.80
2017,05,31,09,24,12.80
2017,05,31,09,25,12.70
2017,05,31,09,26,12.70
2017,05,31,09,27,12.70
2017,05,31,09,28,12.70
2017,05,31,09,29,12.60
2017,05,31,09,30,12.60
2017,05,31,09,31,12.60
2017,05,31,09,32,12.60
2017,05,31,09,33,12.60
2017,05,31,09,34,12.60
2017,05,31,09,35,12.50
2017,05,31,09,36,12.60
2017,05,31,09,37,12.60
2017,05,31,09,38,12.60
2017,05,31,09,39,12.70
2017,05,31,09,40,12.70
2017,05,31,09,41,12.70
2017,05,31,09,42,12.80
2017,05,31,09,43,12.80
2017,05,31,09,44,12.90
2017,05,31,09,45,12.90
2017,05,31,09,46,12.90
2017,05,31,09,47,12.90
2017,05,31,09,48,12.90
2017,05,31,09,49,12.90
2017,05,31,09,50,12.90
2017,05,31,09,51,12.90
2017,05,31,09,52,12.90
2017,05,31,09,53,12.90
2017,05,31,09,54,12.90
2017,05,31,09,55,12.90
2017,05,31,09,56,12.90
2017,05,31,09,57,12.90
2017,05,31,09,58,13.00
2017,05,31,09,59,13.00
2017,05,31,10,00,12.90
2017,05,31,10,01,13.00
2017,05,31,10,02,13.00
2017,05,31,10,03,13.00
2017,05,31,10,04,13.00
2017,05,31,10,05,13.00
2017,05,31,10,06,13.00
2017,05,31,10,07,13.00
2017,05,31,10,08,13.00
2017,05,31,10,09,13.10
2017,05,31,10,10,13.10
2017,05,31,10,11,13.10
2017,05,31,10,12,13.10
2017,05,31,10,13,13.10
2017,05,31,10,14,13.10
2017,05,31,10,15,13.10
2017,05,31,10,16,13.10
2017,05,31,10,17,13.10
2017,05,31,10,18,13.00
2017,05,31,10,19,13.00
2017,05,31,10,20,13.00
2017,05,31,10,21,13.00
2017,05,31,10,22,13.00
2017,05,31,10,23,13.10
2017,05,31,10,24,13.10
2017,05,31,10,25,13.10
2017,05,31,10,26,13.20
2017,05,31,10,27,13.20
2017,05,31,10,28,13.20
2017,05,31,10,29,13.20
2017,05,31,10,30,13.20
2017,05,31,10,31,13.20
2017,05,31,10,32,13.20
2017,05,31,10,33,13.20
2017,05,31,10,34,13.20
2017,05,31,10,35,13.20
2017,05,31,10,36,13.20
2017,05,31,10,37,13.30
2017,05,31,10,38,13.30
2017,05,31,10,39,13.30
2017,05,31,10,40,13.30
2017,05,31,10,41,13.30
2017,05,31,10,42,13.30
2017,05,31,10,43,13.30
2017,05,31,10,44,13.30
2017,05,31,10,45,13.20
2017,05,31,10,46,13.20
2017,05,31,10,47,13.20
2017,05,31,10,48,13.20
2017,05,31,10,49,13.20
2017,05,31,10,50,13.20
2017,05,31,10,51,13.30
2017,05,31,10,52,13.30
2017,05,31,10,53,13.30
2017,05,31,10,54,13.30
2017,05,31,10,55,13.30
2017,05,31,10,56,13.30
2017,05,31,10,57,13.30
2017,05,31,10,58,13.30
2017,05,31,10,59,13.30
2017,05,31,11,00,13.30
2017,05,31,11,01,13.30
2017,05,31,11,02,13.20
2017,05,31,11,03,13.20
2017,05,31,11,04,13.20
2017,05,31,11,05,13.20
2017,05,31,11,06,13.20
2017,05,31,11,07,13.30
2017,05,31,11,08,13.30
2017,05,31,11,09,13.30
2017,05,31,11,10,13.30
2017,05,31,11,11,13.30
2017,05,31,11,12,13.30
2017,05,31,11,13,13.30
2017,05,31,11,14,13.30
2017,05,31,11,15,13.30
2017,05,31,11,16,13.30
2017,05,31,11,17,13.30
2017,05,31,11,18,13.30
2017,05,31,11,19,13.30
2017,05,31,11,20,13.30
2017,05,31,11,21,13.30
2017,05,31,11,22,13.30
2017,05,31,11,23,13.30
2017,05,31,11,24,13.30
2017,05,31,11,25,13.30
2017,05,31,11,26,13.30
2017,05,31,11,27,13.40
2017,05,31,11,28,13.40
2017,05,31,11,29,13.40
2017,05,31,11,30,13.50
2017,05,31,11,31,13.50
2017,05,31,11,32,13.50
2017,05,31,11,33,13.60
2017,05,31,11,34,13.60
2017,05,31,11,35,13.60
2017,05,31,11,36,13.60
2017,05,31,11,37,13.60
2017,05,31,11,38,13.60
2017,05,31,11,39,13.70
2017,05,31,11,40,13.70
2017,05,31,11,41,13.70
2017,05,31,11,42,13.70
2017,05,31,11,43,13.80
2017,05,31,11,44,13.80
2017,05,31,11,45,13.80
2017,05,31,11,46,13.80
2017,05,31,11,47,13.80
2017,05,31,11,48,13.80
2017,05,31,11,49,13.80
2017,05,31,11,50,13.80
2017,05,31,11,51,13.90
2017,05,31,11,52,13.90
2017,05,31,11,53,13.90
2017,05,31,11,54,14.00
2017,05,31,11,55,14.10
2017,05,31,11,56,14.10
2017,05,31,11,57,14.10
2017,05,31,11,58,14.20
2017,05,31,11,59,14.20
2017,05,31,12,00,14.20
2017,05,31,12,01,14.20
2017,05,31,12,02,14.20
2017,05,31,12,03,14.30
2017,05,31,12,04,14.30
2017,05,31,12,05,14.20
2017,05,31,12,06,14.20
2017,05,31,12,07,14.20
2017,05,31,12,08,14.20
2017,05,31,12,09,14.20
2017,05,31,12,10,14.10
2017,05,31,12,11,14.10
2017,05,31,12,12,14.10
2017,05,31,12,13,14.10
2017,05,31,12,14,14.10
2017,05,31,12,15,14.10
2017,05,31,12,16,14.10
2017,05,31,12,17,14.10
2017,05,31,12,18,14.10
2017,05,31,12,19,14.10
2017,05,31,12,20,14.20
2017,05,31,12,21,14.20
2017,05,31,12,22,14.20
2017,05,31,12,23,14.20
2017,05,31,12,24,14.20
2017,05,31,12,25,14.20
2017,05,31,12,26,14.30
2017,05,31,12,27,14.30
2017,05,31,12,28,14.30
2017,05,31,12,29,14.30
2017,05,31,12,30,14.30
2017,05,31,12,31,14.20
2017,05,31,12,32,14.20
2017,05,31,12,33,14.20
2017,05,31,12,34,14.20
2017,05,31,12,35,14.20
2017,05,31,12,36,14.20
2017,05,31,12,37,14.20
2017,05,31,12,38,14.20
2017,05,31,12,39,14.20
2017,05,31,12,40,14.20
2017,05,31,12,41,14.20
2017,05,31,12,42,14.20
2017,05,31,12,43,14.20
2017,05,31,12,44,14.20
2017,05,31,12,45,14.20
2017,05,31,12,46,14.20
2017,05,31,12,47,14.20
2017,05,31,12,48,14.20
2017,05,31,12,49,14.20
2017,05,31,12,50,14.20
2017,05,31,12,51,14.10
2017,05,31,12,52,14.10
2017,05,31,12,53,14.10
2017,05,31,12,54,14.10
2017,05,31,12,55,14.10
2017,05,31,12,56,14.10
2017,05,31,12,57,14.10
2017,05,31,12,58,14.10
2017,05,31,12,59,14.00
2017,05,31,13,00,13.90
2017,05,31,13,01,13.80
2017,05,31,13,02,13.70
2017,05,31,13,03,13.70
2017,05,31,13,04,13.60
2017,05,31,13,05,13.50
2017,05,31,13,06,13.50
2017,05,31,13,07,13.40
2017,05,31,13,08,13.40
2017,05,31,13,09,13.40
2017,05,31,13,10,13.30
2017,05,31,13,11,13.30
2017,05,31,13,12,13.30
2017,05,31,13,13,13.30
2017,05,31,13,14,13.30
2017,05,31,13,15,13.30
2017,05,31,13,16,13.30
2017,05,31,13,17,13.40
2017,05,31,13,18,13.40
2017,05,31,13,19,13.40
2017,05,31,13,20,13.40
2017,05,31,13,21,13.50
2017,05,31,13,22,13.50
2017,05,31,13,23,13.50
2017,05,31,13,24,13.60
2017,05,31,13,25,13.60
2017,05,31,13,26,13.70
2017,05,31,13,27,13.70
2017,05,31,13,28,13.70
2017,05,31,13,29,13.70
2017,05,31,13,30,13.70
2017,05,31,13,31,13.70
2017,05,31,13,32,13.70
2017,05,31,13,33,13.70
2017,05,31,13,34,13.80
2017,05,31,13,35,13.80
2017,05,31,13,36,13.80
2017,05,31,13,37,13.80
2017,05,31,13,38,13.80
2017,05,31,13,39,13.80
2017,05,31,13,40,13.80
2017,05,31,13,41,13.70
2017,05,31,13,42,13.70
2017,05,31,13,43,13.60
2017,05,31,13,44,13.60
2017,05,31,13,45,13.60
2017,05,31,13,46,13.60
2017,05,31,13,47,13.60
2017,05,31,13,48,13.60
2017,05,31,13,49,13.60
2017,05,31,13,50,13.60
2017,05,31,13,51,13.60
2017,05,31,13,52,13.60
2017,05,31,13,53,13.60
2017,05,31,13,54,13.60
2017,05,31,13,55,13.50
2017,05,31,13,56,13.50
2017,05,31,13,57,13.50
2017,05,31,13,58,13.50
2017,05,31,13,59,13.50
2017,05,31,14,00,13.50
2017,05,31,14,01,13.50
2017,05,31,14,02,13.50
2017,05,31,14,03,13.60
2017,05,31,14,04,13.60
2017,05,31,14,05,13.60
2017,05,31,14,06,13.70
2017,05,31,14,07,13.70
2017,05,31,14,08,13.80
2017,05,31,14,09,13.80
2017,05,31,14,10,13.80
2017,05,31,14,11,13.80
2017,05,31,14,12,13.70
2017,05,31,20,37,12.10
2017,05,31,20,38,12.10
2017,05,31,20,39,12.10
2017,05,31,20,40,12.10
2017,05,31,20,41,12.10
2017,05,31,20,42,12.10
2017,05,31,20,43,12.10
2017,05,31,20,44,12.10
2017,05,31,20,45,12.10
2017,05,31,20,46,12.10
2017,05,31,20,47,12.10
2017,05,31,20,48,12.10
2017,05,31,20,49,12.10
2017,05,31,20,50,12.10
2017,05,31,20,51,12.10
2017,05,31,20,52,12.10
2017,05,31,20,53,12.10
2017,05,31,20,54,12.10
2017,05,31,20,55,12.10
2017,05,31,20,56,12.10
2017,05,31,20,57,12.10
2017,05,31,20,58,12.10
2017,05,31,20,59,12.10
2017,05,31,21,00,12.20
2017,05,31,21,01,12.20
2017,05,31,21,02,12.20
2017,05,31,21,03,12.20
2017,05,31,21,04,12.20
2017,05,31,21,05,12.20
2017,05,31,21,06,12.20
2017,05,31,21,07,12.10
2017,05,31,21,08,12.10
2017,05,31,21,09,12.10
2017,05,31,21,10,12.10
2017,05,31,21,11,12.10
2017,05,31,21,12,12.10
2017,05,31,21,13,12.10
2017,05,31,21,14,12.10
2017,05,31,21,15,12.10
2017,05,31,21,16,12.10
2017,05,31,21,17,12.10
2017,05,31,21,18,12.10
2017,05,31,21,19,12.10
2017,05,31,21,20,12.10
2017,05,31,21,21,12.10
2017,05,31,21,22,12.10
2017,05,31,21,23,12.10
2017,05,31,21,24,12.10
2017,05,31,21,25,12.10
2017,05,31,21,26,12.10
2017,05,31,21,27,12.10
2017,05,31,21,28,12.10
2017,05,31,21,29,12.10
2017,05,31,21,30,12.10
2017,05,31,21,31,12.10
2017,05,31,21,32,12.10
2017,05,31,21,33,12.10
2017,05,31,21,34,12.10
2017,05,31,21,35,12.10
2017,05,31,21,36,12.10
2017,05,31,21,37,12.10
2017,05,31,21,38,12.10
2017,05,31,21,39,12.10
2017,05,31,21,40,12.10
2017,05,31,21,41,12.10
2017,05,31,21,42,12.10
2017,05,31,21,43,12.10
2017,05,31,21,44,12.20
2017,05,31,21,45,12.10
2017,05,31,21,46,12.20
2017,05,31,21,47,12.20
2017,05,31,21,48,12.20
2017,05,31,21,49,12.20
2017,05,31,21,50,12.20
2017,05,31,21,51,12.20
2017,05,31,21,52,12.20
2017,05,31,21,53,12.20
2017,05,31,21,54,12.20
2017,05,31,21,55,12.20
2017,05,31,21,56,12.20
2017,05,31,21,57,12.20
2017,05,31,21,58,12.20
2017,05,31,21,59,12.20
2017,05,31,22,00,12.20
2017,05,31,22,01,12.20
2017,05,31,22,02,12.20
2017,05,31,22,03,12.20
2017,05,31,22,04,12.10
2017,05,31,22,05,12.20
2017,05,31,22,06,12.20
2017,05,31,22,07,12.20
2017,05,31,22,08,12.20
2017,05,31,22,09,12.20
2017,05,31,22,10,12.20
2017,05,31,22,11,12.20
2017,05,31,22,12,12.20
2017,05,31,22,13,12.20
2017,05,31,22,14,12.20
2017,05,31,22,15,12.20
2017,05,31,22,16,12.20
2017,05,31,22,17,12.20
2017,05,31,22,18,12.20
2017,05,31,22,19,12.20
2017,05,31,22,20,12.20
2017,05,31,22,21,12.20
2017,05,31,22,22,12.20
2017,05,31,22,23,12.20
2017,05,31,22,24,12.20
2017,05,31,22,25,12.20
2017,05,31,22,26,12.20
2017,05,31,22,27,12.20
2017,05,31,22,28,12.20
2017,05,31,22,29,12.20
2017,05,31,22,30,12.20
2017,05,31,22,31,12.20
2017,05,31,22,32,12.20
2017,05,31,22,33,12.20
2017,05,31,22,34,12.20
2017,05,31,22,35,12.20
2017,05,31,22,36,12.20
2017,05,31,22,37,12.20
2017,05,31,22,38,12.20
2017,05,31,22,39,12.20
2017,05,31,22,40,12.20
2017,05,31,22,41,12.20
2017,05,31,22,42,12.20
2017,05,31,22,43,12.20
2017,05,31,22,44,12.20
2017,05,31,22,45,12.20
2017,05,31,22,46,12.20
2017,05,31,22,47,12.20
2017,05,31,22,48,12.20
2017,05,31,22,49,12.20
2017,05,31,22,50,12.20
2017,05,31,22,51,12.20
2017,05,31,22,52,12.20
2017,05,31,22,53,12.20
2017,05,31,22,54,12.20
2017,05,31,22,55,12.20
2017,05,31,22,56,12.20
2017,05,31,22,57,12.20
2017,05,31,22,58,12.20
2017,05,31,22,59,12.20
2017,05,31,23,00,12.20
2017,05,31,23,01,12.20
2017,05,31,23,02,12.20
2017,05,31,23,03,12.20
2017,05,31,23,04,12.20
2017,05,31,23,05,12.20
2017,05,31,23,06,12.20
2017,05,31,23,07,12.20
2017,05,31,23,08,12.10
2017,05,31,23,09,12.10
2017,05,31,23,10,12.10
2017,05,31,23,11,12.10
2017,05,31,23,12,12.20
2017,05,31,23,13,12.20
2017,05,31,23,14,12.20
2017,05,31,23,15,12.20
2017,05,31,23,16,12.10
2017,05,31,23,17,12.10
2017,05,31,23,18,12.10
2017,05,31,23,19,12.10
2017,05,31,23,20,12.10
2017,05,31,23,21,12.10
2017,05,31,23,22,12.10
2017,05,31,23,23,12.10
2017,05,31,23,24,12.10
2017,05,31,23,25,12.10
2017,05,31,23,26,12.10
2017,05,31,23,27,12.10
2017,05,31,23,28,12.10
2017,05,31,23,29,12.10
2017,05,31,23,30,12.10
2017,05,31,23,31,12.20
2017,05,31,23,32,12.20
2017,05,31,23,33,12.20
2017,05,31,23,34,12.20
2017,05,31,23,35,12.20
2017,05,31,23,36,12.20
2017,05,31,23,37,12.20
2017,05,31,23,38,12.10
2017,05,31,23,39,12.20
2017,05,31,23,40,12.20
2017,05,31,23,41,12.20
2017,05,31,23,42,12.20
2017,05,31,23,43,12.20
2017,05,31,23,44,12.20
2017,05,31,23,45,12.20
2017,05,31,23,46,12.20
2017,05,31,23,47,12.20
2017,05,31,23,48,12.10
2017,05,31,23,49,12.10
2017,05,31,23,50,12.10
2017,05,31,23,51,12.10
2017,05,31,23,52,12.10
2017,05,31,23,53,12.10
2017,05,31,23,54,12.10
2017,05,31,23,55,12.10
2017,05,31,23,56,12.10